THOR ABLESTAR DEB, 3810

Orbit data source: Space-Track

THOR ABLESTAR DEB, 3810 is space debris in LEO originally from a launch on Fri, 13 Aug 1965 UTC launched from the Air Force Western Test Range (AFWTR). Debris objects in space refer to the collection of defunct objects orbiting the Earth. Examples of debris include non-operational satellites, rocket bodies, and fragments generated from explosions, collisions, or faulty payload assembly.

Loading next visibility...
Identifier
3810, 1965-065P
Orbit
LEO
Country
Flag of USUS
Related business
Manufacturer
Unknown
Mission
Spacecraft
Bus & Motor
Unknown
Mass
Unknown
Launch date (UTC)
1965-08-13 (60 years ago)
Launch vehicle
Unknown
Launch site
Air Force Western Test Range (AFWTR)
Object type
Payload
Rocket body
Debris
Shape & HBR
Unknown
Radar Cross Section
Small (<0.1 m²)

Expand to show TLE details & history
Last TLE update: 6 hours ago

TLE from 6 hours ago
0 THOR ABLESTAR DEB
1 03810U 65065P   25242.88990022  .00000683  00000-0  10160-2 0  9994
2 03810  89.9790 216.3028 0061997  50.4777  10.2299 13.51849477219655
Epoch: 2025-08-30T21:21Z
TLE epoch observation values (Epoch: 2025-08-30T21:21:27.379Z)
Latitude
60.92414°
Longitude
-83.34142°
Altitude
1,030.53 km
Speed
7.365 km/s
True Right ascension
14h 25m 21s
True Declination
60° 46' 60"
Sunlit
Object was in daylight at epoch
Visualization orbit readout
Latitude
Unknown
Longitude
Unknown
Altitude
Unknown
Speed
Unknown
Apparent Right ascension
Unknown
Apparent Declination
Unknown
Sunlit
N/A
Visualization observer readout
Local Sidereal Time
18:55:40
Azimuth
Unknown
Elevation
Unknown
Doppler factor
Unknown
Orbital elements
Apogee altitude
1,108.638 km
Perigee altitude
1,016.379 km
Semi-major axis
7,440.646 km
Eccentricity
0.0062
Inclination
89.979°
RAAN
216.3028°
Arg. of periapsis
50.4777°
True anomaly
10.35704°
Mean anomaly
10.2299°
Eccentric anomaly
10.29337°
Mean motion
3.38164 °/min
Orbital period
106.46 mins
BSTAR
0.001016
Loading maneuver chart data...
Computing Atmospheric mass density...
Loading historical data...
Loading historical data...
Loading historical data...
Loading historical data...
Loading historical data...
Loading historical data...
Loading historical data...

Documentation

Showing up to 5 results
|